N9099C KLAX-

Flight info

Callsign N9099C
Flight time N/A
Altitude VFR
Route S VFR
Aircraft PA24/L-VGD/C

Departure

Time 2026-05-03 20:24
Airport Los Angeles International Airport (KLAX)

Arrival

Time N/A
Airport -
Time Latitude Longitude Altitude Speed Heading
2026-05-03 20:15 33.93376 -118.39732 102 ft 0 kts 18°
2026-05-03 20:19 33.93381 -118.39730 102 ft 0 kts 17°
2026-05-03 20:19 33.93402 -118.39720 102 ft 4 kts 340°
2026-05-03 20:20 33.93407 -118.39745 103 ft 5 kts 263°
2026-05-03 20:20 33.93412 -118.39805 103 ft 10 kts 309°
2026-05-03 20:20 33.93460 -118.39765 103 ft 14 kts 83°
2026-05-03 20:20 33.93472 -118.39643 103 ft 13 kts 83°
2026-05-03 20:21 33.93486 -118.39508 103 ft 20 kts 81°
2026-05-03 20:21 33.93509 -118.39316 103 ft 26 kts 83°
2026-05-03 20:21 33.93528 -118.39108 103 ft 22 kts 84°
2026-05-03 20:21 33.93543 -118.38957 102 ft 16 kts 82°
2026-05-03 20:22 33.93557 -118.38824 102 ft 16 kts 84°
2026-05-03 20:22 33.93575 -118.38647 102 ft 23 kts 82°
2026-05-03 20:22 33.93592 -118.38485 102 ft 16 kts 83°
2026-05-03 20:22 33.93602 -118.38384 102 ft 9 kts 83°
2026-05-03 20:23 33.93625 -118.38293 102 ft 16 kts 37°
2026-05-03 20:23 33.93722 -118.38313 104 ft 16 kts 296°
2026-05-03 20:23 33.93718 -118.38463 103 ft 25 kts 261°
2026-05-03 20:23 33.93675 -118.38929 135 ft 74 kts 256°
2026-05-03 20:24 33.93626 -118.39564 304 ft 81 kts 260°
2026-05-03 20:24 33.93586 -118.40262 540 ft 89 kts 263°
2026-05-03 20:24 33.93531 -118.41070 794 ft 104 kts 261°
2026-05-03 20:24 33.93450 -118.41930 1058 ft 99 kts 260°
2026-05-03 20:25 33.93354 -118.42752 1265 ft 103 kts 251°
2026-05-03 20:25 33.92817 -118.43288 1352 ft 116 kts 186°
2026-05-03 20:25 33.92018 -118.43049 1388 ft 124 kts 154°
2026-05-03 20:25 33.91238 -118.42586 1395 ft 127 kts 157°
2026-05-03 20:26 33.90444 -118.42148 1452 ft 126 kts 161°
2026-05-03 20:26 33.89635 -118.41724 1434 ft 126 kts 161°
2026-05-03 20:26 33.88838 -118.41336 1452 ft 122 kts 161°
2026-05-03 20:26 33.88072 -118.41045 1535 ft 115 kts 175°
2026-05-03 20:27 33.87300 -118.40795 1571 ft 112 kts 165°
2026-05-03 20:27 33.86549 -118.40410 1527 ft 123 kts 159°
2026-05-03 20:27 33.85813 -118.39919 1553 ft 120 kts 159°
2026-05-03 20:27 33.85035 -118.39646 1676 ft 113 kts 175°
2026-05-03 20:28 33.84259 -118.39450 1660 ft 116 kts 169°
2026-05-03 20:28 33.83487 -118.39276 1704 ft 115 kts 181°
2026-05-03 20:28 33.82682 -118.39482 1627 ft 120 kts 202°
2026-05-03 20:28 33.81943 -118.39817 1741 ft 110 kts 207°